User: anonymous   Login
Location: Bryzozowice
(50.3667°N, 18.9667°E)
Time: 11:49:41
(UTC+00:00)
Language:

STARLINK-1101 - Orbit

View from above orbital plane
View from above orbital plane
View from above satellite
View from above satellite

Ground track
Ground track

The orbit data is extracted from the following two-line orbital elements,

1 44919C 20001F   20095.19444044  .00008015  00000-0  54903-3 0   951
2 44919  53.0010 347.9006 0002678  73.9877 169.2903 15.05566623    11
Epoch (UTC): 04 April 2020 04:39:59
Eccentricity: 0.0002678
inclination: 53.0010°
perigee height: 548 km
apogee height: 551 km
right ascension of ascending node: 347.9006°
argument of perigee: 73.9877°
revolutions per day: 15.05566623
mean anomaly at epoch: 169.2903°
orbit number at epoch: 1

The dashed part of the orbit path shows where the satellite is in the earth's shadow,  

DLR